EUTELSAT HOTBIRD 13F

Last updated on Tue Nov 19 2024 00:02:44 GMT+0000 (Coordinated Universal Time)

1 54048U 22134A 24322.58188208 .00000092 00000+0 00000+0 0 9995 2 54048 0.0646 289.2795 0001932 64.7430 285.6067 1.00271175 7599
UTC large
Height (km)
Speed (km/s)
/
Latitude / Longitude
Inclination (degrees)
Orbital Period (minutes)
Azimuth
Elevation
Range (km)
Doppler Factor

Next 0 passes for location: London (51.5072 / 0.1276)

Sorry there are no passes over London.